Location: Unspecified
(0.0000°N, 0.0000°E)
Time: 00:31:36
(UTC+00:00)

A-11 Canister half - Pass Details

Date: 13 February 2023
Orbit: 1526 x 1682 km, 47.3° (Epoch: 29 March)

Event Time Altitude Azimuth Distance (km) Brightness Sun altitude
Rises 09:42:26 0° 351° (N) 4,717 11.4 50.1°
Reaches altitude 10° 09:47:16 10° 12° (NNE) 3,765 11.1 51.2°
Maximum altitude 09:52:32 16° 47° (NE) 3,354 11.2 52.5°
Drops below altitude 10° 09:57:52 10° 81° (E) 3,841 11.7 53.7°
Sets 10:02:48 0° 101° (E) 4,861 12.2 54.8°
